Погода в Яру

Россия / Удмуртская Республика     58°14′44″N   52°06′20″E
темп.,
°C
ветер,
м/с
пор.,
м/с
влажн.,
%
обл.,
%
осадки,
мм/ч
давл.,
гПа
погр.,
м
5 марта, пт
пт501:00−6зсз7139196 0.1 988498
04:00−9зсз7129197 0.2 993498
07:00−14зсз5109598 0.1 996305
10:00−13зсз588981 0.1 999413
13:00−9з46850 0.0 1000530
16:00−8з478838 0.0 1001734
19:00−9зюз4996100 0.2 1002266
22:00−11з4796100 0.6 1005186
6 марта, сб
сб601:00−15зсз349698 0.1 100546
04:00−20зсз349971 0.1 100863
07:00−22зсз34993 0.0 100946
10:00−18зсз35946 0.0 1011240
13:00−13з458782 0.0 1011544
16:00−13з468790 0.1 1010661
19:00−16зюз3395100 0.0 101131
22:00−17зюз239798 0.1 101140
7 марта, вс
вс701:00−18зюз239896 0.1 101024
04:00−20юз2210096 0.1 101121
07:00−21юз2210097 0.1 101020
10:00−17юз239498 0.1 1010205
13:00−13ююз238599 0.0 1008456
16:00−11ю238499 0.1 1007629
19:00−16ююв339397 0.0 100622
22:00−17юв349794 0.0 100564
8 марта, пн
пн801:00−17юв4896100 0.0 1003173
04:00−15вюв51095100 0.1 1000302
07:00−14вюв61195100 0.8 998419
10:00−13юв61093100 1.4 997506
13:00−10юв5892100 0.5 997635
16:00−7ююз3693100 1.3 997575
19:00−9ююз2295100 0.6 99850
22:00−10ю3596100 0.8 998109
9 марта, вт
вт901:00−12вюв229692 0.2 99821
04:00−14всв229794 0.3 99720
07:00−14с3396100 0.1 99867
10:00−13ссз3593100 0.1 1001265
13:00−10ссз348899 0.1 1004463
16:00−9ссз3488100 0.1 1006634
19:00−13с239598 0.1 100856
22:00−16ссв239592 0.1 101050